This demonstration page uses our WeatherBlox Daily Observations layout. Learn more.

Left ArrowRight Arrow

41.86663, -103.66717

Hourly Observations for April 10, 2016

Temp ( °F °C ) Dew Point ( °F °C ) Humidity (%) Winds ( mph kmh ) Pressure ( in mb ) Visibility ( mi km ) Precip ( " mm )
12:53 am 00:53 Partly Cloudy 54 12.2 33 0.6 45 45 N 6 9 29.58 1002 10 16 N/A
1:53 am 01:53 Clear 52 11.1 30 -1.1 43 43 N 5 7 29.60 1002 10 16 N/A
2:53 am 02:53 Clear 46 7.8 31 -0.6 56 56 NNE 10 17 29.62 1003 10 16 N/A
3:53 am 03:53 Clear 46 7.8 30 -1.1 54 54 NE 10 17 29.64 1004 10 16 N/A
4:53 am 04:53 Clear 46 7.8 29 -1.7 51 51 N N/A 29.66 1005 10 16 N/A
5:53 am 05:53 Cloudy 47 8.3 31 -0.6 54 54 N 5 7 29.69 1006 10 16 N/A
6:53 am 06:53 Cloudy 45 7.2 31 -0.6 58 58 NE 5 7 29.73 1007 10 16 N/A
7:53 am 07:53 Cloudy 49 9.4 33 0.6 55 55 N N/A 29.75 1008 10 16 N/A
8:53 am 08:53 Mostly Cloudy 51 10.6 31 -0.6 46 46 ENE 12 19 29.77 1008 10 16 N/A
9:53 am 09:53 Mostly Cloudy 50 10 32 undefined 50 50 E 16 26 29.79 1009 10 16 N/A
10:53 am 10:53 Cloudy 49 9.4 32 undefined 52 52 ENE 14 22 29.84 1011 10 16 N/A
11:53 am 11:53 Cloudy 48 8.9 31 -0.6 52 52 ENE 16 26 29.85 1011 10 16 N/A
12:53 pm 12:53 Cloudy 49 9.4 32 undefined 52 52 ENE 14 22 29.86 1011 10 16 N/A
1:53 pm 13:53 Cloudy 49 9.4 32 undefined 52 52 E 9 15 29.89 1012 10 16 N/A
2:53 pm 14:53 Cloudy with Light Rain 48 8.9 35 1.7 61 61 E 3 6 29.92 1013 10 16 N/A
3:35 pm 15:35 Cloudy with Light Rain 46 7.8 39 3.9 77 77 NNE 12 19 29.91 1013 10 16 0.01 0.25
3:53 pm 15:53 Cloudy with Light Rain 46 7.8 39 3.9 77 77 NNE 8 13 29.93 1014 10 16 0.01 0.25
4:23 pm 16:23 Cloudy with Light Rain 47 8.3 40 4.4 77 77 N 6 9 29.91 1013 10 16 0.01 0.25
4:53 pm 16:53 Cloudy with Light Rain 47 8.3 39 3.9 74 74 N 10 17 29.93 1014 10 16 0.01 0.25
5:53 pm 17:53 Cloudy with Light Rain 46 7.8 40 4.4 79 79 N 7 11 29.95 1014 10 16 N/A
6:53 pm 18:53 Cloudy 45 7.2 40 4.4 83 83 W 6 9 29.98 1015 10 16 N/A
7:53 pm 19:53 Clear 44 6.7 40 4.4 85 85 WNW 7 11 29.97 1015 10 16 N/A
8:53 pm 20:53 Clear 41 5 39 3.9 93 93 W 5 7 30.00 1016 10 16 N/A
9:53 pm 21:53 Clear 40 4.4 39 3.9 97 97 NW 8 13 30.03 1017 10 16 N/A
10:53 pm 22:53 Partly Cloudy 39 3.9 37 2.8 93 93 NNW 5 7 30.04 1017 10 16 N/A
11:53 pm 23:53 Clear 38 3.3 37 2.8 97 97 N 7 11 30.05 1018 10 16 N/A

Powered by AerisWeather